Location: UMBC
(39.2555°N, 76.7093°W)
Time: 08:13:25
(UTC+02:00)

Amateur Radio Satellites - All Passes

Search period start: 23 August 2017 07:43
Search period end: 24 August 2017 07:43
Location: UMBC, 39.2555°N, 76.7093°W

Satellite Date Start Highest point End Downlink Frequencies (MHz)
Time Altitude Azimuth
NO-84 23 Aug 07:46:02 07:48:37 28° 323° (NW) 07:51:09 435.350 FM
NANOSAT C BR1 23 Aug 07:52:25 07:56:04 30° 290° (WNW) 07:59:44 145.865
M-CUBED/EXP-1 PRIME 23 Aug 07:56:24 07:59:36 21° 299° (WNW) 08:02:38 437.505
POLYITAN 1 23 Aug 07:59:33 08:02:52 23° 291° (WNW) 08:06:12 437.675
EO-79 23 Aug 08:15:19 08:17:55 16° 294° (WNW) 08:20:30 145.935-145.965
QB50P2 23 Aug 08:15:40 08:18:01 15° 295° (WNW) 08:20:22 145.880/145.840
BEESAT 23 Aug 08:18:59 08:21:52 16° 64° (ENE) 08:24:45 436.000
50 SAT 23 Aug 08:19:52 08:22:16 18° 265° (W) 08:24:42 437.505
Gurwin Techsat 1B 23 Aug 08:27:35 08:32:30 38° 98° (E) 08:37:24 435.225
YUBILEINY 23 Aug 08:31:29 08:39:24 37° 73° (ENE) 08:47:14 435.215
BUGSAT 1 23 Aug 08:32:29 08:36:18 42° 287° (WNW) 08:40:06 437.445
UKube-1 23 Aug 08:33:13 08:37:15 38° 261° (W) 08:41:19 .
Oscar 19 23 Aug 08:35:28 08:40:40 70° 102° (ESE) 08:45:51 437.125/150
DUCHIFAT 1 23 Aug 08:44:32 08:44:57 10° 297° (WNW) 08:45:23 145.980
ITUPSAT 1 23 Aug 08:53:15 08:57:31 34° 70° (ENE) 09:01:48 437.325
AO-7 23 Aug 08:54:24 08:57:04 12° 88° (E) 08:59:43 .
DX 1 23 Aug 09:01:55 09:04:00 13° 268° (W) 09:06:05 434.975-435.025
MOZHAYETS 4 23 Aug 09:18:02 09:22:26 51° 73° (ENE) 09:26:51
CUBESAT XI-V 23 Aug 09:45:15 09:48:39 20° 66° (ENE) 09:52:04 437.345
BEESAT 23 Aug 09:54:33 09:59:11 53° 259° (W) 10:03:51 436.000
ITAMSAT 1 23 Aug 10:00:30 10:05:00 29° 96° (E) 10:09:28 435.822/435.867
Gurwin Techsat 1B 23 Aug 10:07:53 10:12:15 26° 294° (WNW) 10:16:36 435.225
Oscar 19 23 Aug 10:16:34 10:19:22 15° 299° (WNW) 10:22:09 437.125/150
AO-85 23 Aug 10:16:46 10:18:55 14° 110° (ESE) 10:21:04 145.980
YUBILEINY 23 Aug 10:28:09 10:36:17 46° 272° (W) 10:44:24 435.215
ITUPSAT 1 23 Aug 10:31:36 10:35:22 23° 265° (W) 10:39:09 437.325
BEESAT 3 23 Aug 10:38:02 10:41:50 45° 117° (ESE) 10:45:43 437.485
AO-7 23 Aug 10:42:47 10:51:07 72° 106° (ESE) 10:59:23 .
KKS-1 23 Aug 10:48:52 10:53:04 42° 71° (ENE) 10:57:16 437.445
MOZHAYETS 4 23 Aug 10:57:25 10:59:52 14° 269° (W) 11:02:20
BEESAT 2 23 Aug 10:58:06 11:01:17 23° 112° (ESE) 11:04:29 435.950
STARS 23 Aug 11:20:40 11:24:43 37° 71° (ENE) 11:28:47 437.465
CUBESAT XI-V 23 Aug 11:21:22 11:25:43 39° 262° (W) 11:30:08 437.345
ITAMSAT 1 23 Aug 11:39:52 11:44:24 32° 292° (WNW) 11:48:56 435.822/435.867
DOVE 4 23 Aug 11:52:41 11:56:30 27° 95° (E) 12:00:08 437.250
AO-85 23 Aug 11:55:10 11:58:55 42° 306° (NW) 12:02:40 145.980
BEESAT 3 23 Aug 12:16:53 12:19:39 18° 314° (NW) 12:22:25 437.485
NUDT-PHONESAT 23 Aug 12:22:04 12:23:24 12° 92° (E) 12:24:45 437.300
LilacSat-2 23 Aug 12:23:24 12:26:13 19° 94° (E) 12:29:02 437.200
XW-2D 23 Aug 12:24:28 12:27:15 19° 94° (E) 12:30:00 145.860 - 145.880
KKS-1 23 Aug 12:26:52 12:29:46 17° 267° (W) 12:32:41 437.445
CUTE-I 23 Aug 12:27:23 12:31:14 20° 93° (E) 12:35:03 437.470
XW-2B 23 Aug 12:35:16 12:38:27 24° 96° (E) 12:41:37 145.730 - 145.750
BEESAT 2 23 Aug 12:35:20 12:38:51 30° 309° (NW) 12:42:28 435.950
AO-7 23 Aug 12:36:38 12:43:08 26° 304° (NW) 12:49:36 .
NO-84 23 Aug 12:43:25 12:44:30 11° 28° (NNE) 12:45:36 435.350 FM
STRAND 1 23 Aug 12:53:56 12:58:14 28° 67° (ENE) 13:02:33 437.568
XW-2C 23 Aug 12:54:06 12:57:46 42° 99° (E) 13:01:27 145.795 - 145.815
STARS 23 Aug 12:58:07 13:01:10 18° 266° (W) 13:04:14 437.465
PCSat 23 Aug 13:03:34 13:08:20 30° 52° (NE) 13:13:05 145.827
XW-2F 23 Aug 13:04:04 13:07:51 54° 100° (E) 13:11:36 145.980 - 146.000
SO-50 23 Aug 13:17:10 13:21:20 34° 51° (NE) 13:25:31 436.795
KAITUO 1B 23 Aug 13:24:52 13:28:41 81° 103° (ESE) 13:32:29 145.475/437.950
HO-68 23 Aug 13:29:09 13:35:09 28° 95° (E) 13:41:08 435.675
DOVE 4 23 Aug 13:30:28 13:34:04 24° 292° (WNW) 13:37:30 437.250
SEEDS 23 Aug 13:32:15 13:34:07 13° 91° (E) 13:36:00 437.485
Tancredo 1 23 Aug 13:33:25 13:34:56 13° 130° (SE) 13:36:26 437.200
NUDT-PHONESAT 23 Aug 13:53:55 13:57:29 42° 286° (WNW) 14:01:02 437.300
LilacSat-2 23 Aug 13:57:09 14:00:29 27° 289° (WNW) 14:03:47 437.200
XW-2D 23 Aug 13:58:07 14:01:24 27° 289° (WNW) 14:04:41 145.860 - 145.880
CUTE-I 23 Aug 14:06:24 14:11:30 48° 289° (WNW) 14:16:33 437.470
AAUSAT CUBESAT 2 23 Aug 14:09:32 14:11:55 15° 92° (E) 14:14:17 437.432
XW-2B 23 Aug 14:09:32 14:12:29 21° 291° (WNW) 14:15:27 145.730 - 145.750
XW-2A 23 Aug 14:15:45 14:18:47 29° 97° (E) 14:21:49 145.665 - 145.685
NO-84 23 Aug 14:19:12 14:22:15 90° 259° (WSW) 14:25:31 435.350 FM
CUTE 1.7 + AOD 2 23 Aug 14:23:00 14:27:19 83° 99° (E) 14:31:36 437.475
XW-2C 23 Aug 14:29:45 14:31:34 13° 294° (WNW) 14:33:22 145.795 - 145.815
STRAND 1 23 Aug 14:32:43 14:37:17 33° 263° (W) 14:41:52 437.568
XW-2F 23 Aug 14:40:42 14:41:28 10° 295° (WNW) 14:42:13 145.980 - 146.000
PCSat 23 Aug 14:46:48 14:51:47 38° 250° (WSW) 14:56:42 145.827
FO-29 23 Aug 14:47:14 14:53:58 38° 68° (ENE) 15:00:06 435.910
UWE-3 23 Aug 14:47:59 14:52:06 45° 99° (E) 14:56:19 435.000/436.395/437.385
Oscar 11 23 Aug 14:48:40 14:51:21 16° 92° (E) 14:54:00 .
SO-50 23 Aug 14:57:51 15:01:39 26° 247° (WSW) 15:05:27 436.795
CUBEBUG 2 23 Aug 15:00:43 15:04:56 72° 285° (WNW) 15:09:16 437.445
SEEDS 23 Aug 15:05:57 15:10:05 50° 286° (WNW) 15:14:11 437.485
Tancredo 1 23 Aug 15:06:58 15:09:48 47° 326° (NW) 15:12:37 437.200
O/OREOS (USA 219) 23 Aug 15:12:41 15:16:58 48° 107° (ESE) 15:21:17 437.305
HO-68 23 Aug 15:16:14 15:23:07 53° 292° (WNW) 15:30:00 435.675
ZACube-1 23 Aug 15:21:43 15:26:00 59° 101° (E) 15:30:21 437.345
ISS 23 Aug 15:24:05 15:27:17 53° 138° (SE) 15:30:30 437.550
nSIGHT-1 23 Aug 15:28:57 15:32:10 65° 140° (SE) 15:35:25 .
UNISAT 6 23 Aug 15:34:59 15:38:43 29° 70° (ENE) 15:42:26 437.425
AO-73 23 Aug 15:41:16 15:45:37 88° 103° (ESE) 15:50:02 145.935
AAUSAT CUBESAT 2 23 Aug 15:43:36 15:47:33 41° 287° (WNW) 15:51:27 437.432
XW-2A 23 Aug 15:49:25 15:51:14 14° 292° (WNW) 15:53:03 145.665 - 145.685
RS-15 23 Aug 15:56:12 16:06:26 34° 104° (ESE) 16:16:46 29.354- 29.394
TIGRISAT 23 Aug 16:08:41 16:12:58 65° 75° (ENE) 16:17:11 435.000
Oscar 11 23 Aug 16:23:32 16:27:39 42° 287° (WNW) 16:31:45 .
DELFI C3 23 Aug 16:24:51 16:28:41 43° 99° (E) 16:32:26 145.870
UWE-3 23 Aug 16:25:40 16:28:12 16° 294° (WNW) 16:30:46 435.000/436.395/437.385
PRISM 23 Aug 16:26:52 16:31:01 81° 77° (ENE) 16:35:13 437.425
EO-88 23 Aug 16:27:00 16:30:06 25° 96° (E) 16:33:11 145.990 - 145.960
FO-29 23 Aug 16:31:48 16:38:51 42° 262° (W) 16:45:20 435.910
Tancredo 1 23 Aug 16:44:37 16:45:31 11° 344° (NNW) 16:46:26 437.200
O/OREOS (USA 219) 23 Aug 16:53:48 16:56:39 16° 304° (NW) 16:59:31 437.305
ZACube-1 23 Aug 16:59:59 17:01:47 12° 295° (WNW) 17:03:36 437.345
ISS 23 Aug 17:01:20 17:03:58 21° 335° (NNW) 17:06:35 437.550
M-CUBED/EXP-1 PRIME 23 Aug 17:05:08 17:09:20 38° 66° (ENE) 17:13:39 437.505
nSIGHT-1 23 Aug 17:06:21 17:08:49 19° 336° (NNW) 17:11:17 .
NANOSAT C BR1 23 Aug 17:09:09 17:11:23 14° 65° (ENE) 17:13:38 145.865
AIST 2D 23 Aug 17:10:39 17:13:49 34° 73° (ENE) 17:17:01 435.315
UNISAT 6 23 Aug 17:12:04 17:15:25 22° 265° (W) 17:18:46 437.425
Max Valier Satellite 23 Aug 17:12:04 17:15:43 57° 285° (WNW) 17:19:22 145.860
POLYITAN 1 23 Aug 17:15:39 17:18:35 19° 67° (ENE) 17:21:32 437.675
EO-79 23 Aug 17:29:59 17:33:30 27° 70° (ENE) 17:37:03 145.935-145.965
QB50P2 23 Aug 17:30:08 17:33:47 30° 70° (ENE) 17:37:27 145.880/145.840
LO-87 23 Aug 17:47:57 17:51:07 31° 97° (E) 17:54:17 145.935 - 145.965
ESTCUBE 1 23 Aug 17:49:08 17:52:44 23° 95° (E) 17:56:19 437.505/2401.250
DUCHIFAT 1 23 Aug 17:56:11 18:00:06 41° 72° (ENE) 18:04:02 145.980
EO-88 23 Aug 18:00:58 18:03:35 19° 291° (WNW) 18:06:12 145.990 - 145.960
DELFI C3 23 Aug 18:01:03 18:03:01 14° 294° (WNW) 18:05:00 145.870
RS-15 23 Aug 18:05:44 18:17:58 72° 305° (NW) 18:30:21 29.354- 29.394
Oscar 19 23 Aug 18:16:14 18:17:46 11° 59° (ENE) 18:19:18 437.125/150
JUGNU 23 Aug 18:20:40 18:21:45 10° 184° (S) 18:22:50 437.505
M-CUBED/EXP-1 PRIME 23 Aug 18:40:19 18:43:47 22° 262° (W) 18:47:21 437.505
NANOSAT C BR1 23 Aug 18:42:40 18:46:41 46° 261° (W) 18:50:43 145.865
AIST 2D 23 Aug 18:45:44 18:47:09 12° 268° (W) 18:48:34 435.315
AO-85 23 Aug 18:47:24 18:49:38 14° 44° (NE) 18:51:57 145.980
POLYITAN 1 23 Aug 18:50:18 18:54:07 34° 263° (W) 18:57:57 437.675
BEESAT 3 23 Aug 18:56:06 18:59:11 21° 48° (NE) 19:02:12 437.485
EO-79 23 Aug 19:05:51 19:09:13 23° 265° (W) 19:12:35 145.935-145.965
QB50P2 23 Aug 19:06:23 19:09:34 21° 265° (W) 19:12:47 145.880/145.840
SPROUT 23 Aug 19:06:23 19:10:22 38° 98° (E) 19:14:19 437.525
BEESAT 2 23 Aug 19:17:07 19:19:04 13° 43° (NE) 19:21:01 435.950
VELOX 1 23 Aug 19:19:44 19:23:55 42° 99° (E) 19:28:04 145.980
BUGSAT 1 23 Aug 19:20:25 19:24:30 75° 259° (W) 19:28:33 437.445
LO-87 23 Aug 19:22:19 19:24:16 14° 293° (WNW) 19:26:13 145.935 - 145.965
ESTCUBE 1 23 Aug 19:25:30 19:29:33 32° 290° (WNW) 19:33:33 437.505/2401.250
DUCHIFAT 1 23 Aug 19:33:36 19:35:57 15° 268° (W) 19:38:18 145.980
50 SAT 23 Aug 19:41:32 19:44:18 23° 96° (E) 19:47:02 437.505
Gurwin Techsat 1B 23 Aug 19:47:28 19:52:38 55° 72° (ENE) 19:57:50 435.225
Oscar 19 23 Aug 19:51:08 19:56:17 90° 256° (WSW) 20:01:29 437.125/150
AO-7 23 Aug 19:51:22 19:56:55 20° 52° (NE) 20:02:27 .
Tancredo 1 23 Aug 19:55:54 19:57:56 17° 24° (NNE) 19:59:57 437.200
ISS 23 Aug 20:17:25 20:19:05 13° 16° (NNE) 20:20:44 437.550
UKube-1 23 Aug 20:20:59 20:24:56 35° 98° (E) 20:28:52 .
nSIGHT-1 23 Aug 20:21:57 20:23:44 14° 17° (NNE) 20:25:33 .
RS-15 23 Aug 20:23:13 20:33:10 27° 333° (NNW) 20:43:06 29.354- 29.394
SRMSAT 23 Aug 20:25:19 20:26:37 11° 179° (S) 20:27:55 437.500
AO-85 23 Aug 20:26:06 20:30:28 77° 240° (WSW) 20:35:10 145.980
BEESAT 3 23 Aug 20:33:12 20:36:50 34° 245° (WSW) 20:40:23 437.485
SPROUT 23 Aug 20:43:09 20:45:57 17° 294° (WNW) 20:48:45 437.525
DX 1 23 Aug 20:48:18 20:52:38 71° 285° (WNW) 20:56:56 434.975-435.025
BEESAT 2 23 Aug 20:53:14 20:57:17 70° 240° (WSW) 21:01:15 435.950
VELOX 1 23 Aug 20:57:08 21:00:01 17° 295° (WNW) 21:02:53 145.980
50 SAT 23 Aug 21:14:34 21:16:45 16° 292° (WNW) 21:18:56 437.505
MOZHAYETS 4 23 Aug 21:15:43 21:17:50 13° 91° (E) 21:19:57
ITAMSAT 1 23 Aug 21:17:16 21:22:07 41° 70° (ENE) 21:26:59 435.822/435.867
Gurwin Techsat 1B 23 Aug 21:29:24 21:32:53 18° 268° (W) 21:36:24 435.225
Tancredo 1 23 Aug 21:30:28 21:33:19 58° 221° (SW) 21:36:09 437.200
YUBILEINY 23 Aug 21:30:56 21:39:03 44° 88° (E) 21:47:09 435.215
AO-7 23 Aug 21:40:09 21:48:32 87° 71° (ENE) 21:56:57 .
ISS 23 Aug 21:52:59 21:56:10 50° 34° (NE) 21:59:21 437.550
BEESAT 23 Aug 21:55:32 22:00:02 40° 99° (E) 22:04:31 436.000
nSIGHT-1 23 Aug 21:57:27 22:00:40 58° 35° (NE) 22:03:51 .
UKube-1 23 Aug 21:57:36 22:00:42 20° 294° (WNW) 22:03:47 .
ITUPSAT 1 23 Aug 22:31:42 22:36:30 86° 282° (WNW) 22:41:17 437.325
RS-15 23 Aug 22:43:19 22:51:45 20° 9° (N) 22:59:58 29.354- 29.394
MOZHAYETS 4 23 Aug 22:50:46 22:55:19 58° 286° (WNW) 22:59:51
DOVE 4 23 Aug 22:55:59 23:00:31 30° 69° (ENE) 23:04:57 437.250
ITAMSAT 1 23 Aug 22:57:41 23:01:42 23° 265° (W) 23:05:45 435.822/435.867
XW-2B 23 Aug 23:17:38 23:18:35 11° 65° (ENE) 23:19:32 145.730 - 145.750
CUBESAT XI-V 23 Aug 23:18:28 23:23:06 55° 100° (E) 23:27:41 437.345
YUBILEINY 23 Aug 23:27:48 23:35:51 39° 287° (WNW) 23:43:56 435.215
ISS 23 Aug 23:30:17 23:32:22 16° 230° (SW) 23:34:25 437.550
BEESAT 23 Aug 23:34:00 23:37:30 21° 295° (WNW) 23:41:01 436.000
XW-2C 23 Aug 23:35:03 23:37:39 18° 68° (ENE) 23:40:16 145.795 - 145.815
nSIGHT-1 23 Aug 23:35:03 23:36:41 13° 231° (SW) 23:38:18 .
AO-7 23 Aug 23:36:51 23:42:10 18° 268° (W) 23:47:32 .
XW-2F 23 Aug 23:44:18 23:47:12 22° 70° (ENE) 23:50:09 145.980 - 146.000
CUTE-I 23 Aug 23:47:52 23:52:30 31° 67° (ENE) 23:57:08 437.470
HO-68 23 Aug 23:58:09 00:03:02 20° 57° (ENE) 00:07:54 435.675
KAITUO 1B 24 Aug 00:03:49 00:07:04 29° 71° (ENE) 00:10:21 145.475/437.950
KKS-1 24 Aug 00:16:47 00:21:14 83° 284° (WNW) 00:25:39 437.445
NUDT-PHONESAT 24 Aug 00:31:25 00:35:03 67° 76° (ENE) 00:38:43 437.300
DOVE 4 24 Aug 00:33:22 00:38:04 32° 264° (W) 00:42:40 437.250
LilacSat-2 24 Aug 00:37:04 00:40:49 66° 260° (W) 00:44:37 437.200
XW-2D 24 Aug 00:37:22 00:41:06 68° 259° (W) 00:44:53 145.860 - 145.880
STARS 24 Aug 00:46:39 00:51:01 85° 100° (E) 00:55:23 437.465
XW-2B 24 Aug 00:48:38 00:52:17 50° 261° (W) 00:55:58 145.730 - 145.750
CUBESAT XI-V 24 Aug 00:57:14 00:59:59 16° 296° (WNW) 01:02:43 437.345
RS-15 24 Aug 00:57:37 01:08:56 42° 42° (NE) 01:19:39 29.354- 29.394
XW-2C 24 Aug 01:08:24 01:11:38 27° 264° (W) 01:14:54 145.795 - 145.815
CUTE 1.7 + AOD 2 24 Aug 01:14:13 01:18:17 48° 74° (ENE) 01:22:25 437.475
XW-2F 24 Aug 01:18:14 01:21:13 22° 265° (W) 01:24:13 145.980 - 146.000
O/OREOS (USA 219) 24 Aug 01:23:24 01:27:59 79° 68° (ENE) 01:32:33 437.305
CUTE-I 24 Aug 01:27:40 01:32:26 32° 263° (W) 01:37:14 437.470
KAITUO 1B 24 Aug 01:38:45 01:41:06 16° 267° (W) 01:43:29 145.475/437.950
HO-68 24 Aug 01:42:46 01:49:56 79° 255° (WSW) 01:57:08 435.675
Oscar 11 24 Aug 01:43:58 01:45:19 11° 63° (ENE) 01:46:39 .
UWE-3 24 Aug 01:44:10 01:47:50 30° 71° (ENE) 01:51:28 435.000/436.395/437.385
SEEDS 24 Aug 01:55:48 02:00:01 88° 264° (W) 02:04:17 437.485
CUBEBUG 2 24 Aug 01:57:28 02:01:43 80° 75° (ENE) 02:05:53 437.445
ZACube-1 24 Aug 02:16:33 02:20:23 38° 72° (ENE) 02:24:13 437.345
XW-2A 24 Aug 02:17:57 02:21:09 46° 261° (W) 02:24:23 145.665 - 145.685
AAUSAT CUBESAT 2 24 Aug 02:31:47 02:35:56 77° 258° (WSW) 02:40:09 437.432
AO-73 24 Aug 02:35:33 02:39:36 56° 75° (ENE) 02:43:38 145.935
STRAND 1 24 Aug 02:43:27 02:48:35 89° 271° (W) 02:53:42 437.568
CUTE 1.7 + AOD 2 24 Aug 02:52:24 02:54:23 13° 269° (W) 02:56:23 437.475
EO-88 24 Aug 03:06:21 03:06:42 10° 65° (ENE) 03:07:03 145.990 - 145.960
DELFI C3 24 Aug 03:09:24 03:12:31 22° 69° (ENE) 03:15:38 145.870
RS-15 24 Aug 03:10:20 03:22:05 65° 247° (WSW) 03:33:10 29.354- 29.394
Oscar 11 24 Aug 03:16:36 03:20:51 65° 259° (WSW) 03:25:10 .
UWE-3 24 Aug 03:21:15 03:24:18 20° 266° (W) 03:27:22 435.000/436.395/437.385
SO-50 24 Aug 03:32:49 03:34:44 13° 108° (ESE) 03:36:40 436.795
HO-68 24 Aug 03:36:13 03:38:39 12° 272° (W) 03:41:06 435.675
FO-29 24 Aug 03:43:29 03:47:58 26° 94° (E) 03:52:17 435.910
PCSat 24 Aug 03:44:15 03:49:00 32° 109° (ESE) 03:53:46 145.827
Max Valier Satellite 24 Aug 03:49:30 03:53:00 47° 74° (ENE) 03:56:32 145.860
ZACube-1 24 Aug 03:54:17 03:56:48 16° 267° (W) 03:59:19 437.345
TIGRISAT 24 Aug 04:02:17 04:04:40 14° 92° (E) 04:07:04 435.000
PRISM 24 Aug 04:11:24 04:12:46 11° 91° (E) 04:14:09 437.425
AO-73 24 Aug 04:15:32 04:16:10 10° 270° (W) 04:16:50 145.935
LO-87 24 Aug 04:24:38 04:26:00 12° 66° (ENE) 04:27:20 145.935 - 145.965
STRAND 1 24 Aug 04:25:43 04:26:58 11° 301° (WNW) 04:28:13 437.568
EO-88 24 Aug 04:36:21 04:39:52 49° 260° (W) 04:43:26 145.990 - 145.960
DELFI C3 24 Aug 04:43:46 04:47:08 26° 264° (W) 04:50:31 145.870
ESTCUBE 1 24 Aug 04:47:59 04:51:11 19° 66° (ENE) 04:54:23 437.505/2401.250
UNISAT 6 24 Aug 05:03:05 05:07:27 79° 101° (E) 05:11:53 437.425
SO-50 24 Aug 05:10:10 05:14:38 64° 304° (WNW) 05:19:07 436.795
PCSat 24 Aug 05:27:22 05:32:18 35° 306° (NW) 05:37:16 145.827
FO-29 24 Aug 05:28:18 05:33:10 34° 293° (WNW) 05:37:47 435.910
RS-15 24 Aug 05:28:32 05:31:50 12° 267° (W) 05:35:05 29.354- 29.394
NO-84 24 Aug 05:36:33 05:38:08 13° 127° (SE) 05:39:39 435.350 FM
TIGRISAT 24 Aug 05:37:24 05:41:33 46° 287° (WNW) 05:45:47 435.000
PRISM 24 Aug 05:44:20 05:48:21 52° 287° (WNW) 05:52:19 437.425
LO-87 24 Aug 05:55:38 05:59:02 40° 261° (W) 06:02:25 145.935 - 145.965
SPROUT 24 Aug 05:58:46 06:02:17 26° 69° (ENE) 06:05:49 437.525
AIST 2D 24 Aug 06:09:15 06:12:43 49° 100° (E) 06:16:10 435.315
VELOX 1 24 Aug 06:15:44 06:19:44 33° 70° (ENE) 06:23:44 145.980
M-CUBED/EXP-1 PRIME 24 Aug 06:19:28 06:23:10 29° 100° (E) 06:26:37 437.505
ESTCUBE 1 24 Aug 06:23:27 06:27:40 39° 262° (W) 06:31:55 437.505/2401.250
NANOSAT C BR1 24 Aug 06:27:58 06:31:35 27° 96° (E) 06:35:11 145.865
POLYITAN 1 24 Aug 06:35:37 06:39:33 38° 98° (E) 06:43:30 437.675
EO-79 24 Aug 06:50:18 06:54:27 57° 100° (E) 06:58:35 145.935-145.965
QB50P2 24 Aug 06:50:48 06:55:00 65° 101° (E) 06:59:11 145.880/145.840
BUGSAT 1 24 Aug 07:04:09 07:06:38 16° 93° (E) 07:09:06 437.445
NO-84 24 Aug 07:12:29 07:15:16 37° 321° (NW) 07:17:57 435.350 FM
UKube-1 24 Aug 07:14:26 07:18:03 27° 69° (ENE) 07:21:41 .
DUCHIFAT 1 24 Aug 07:16:10 07:20:22 89° 276° (W) 07:24:34 145.980
SPROUT 24 Aug 07:34:36 07:38:07 25° 265° (W) 07:41:37 437.525
